This is the latest recevied weather packets stored in our database for station/object N8QQQ. If no packets are shown the sender has not sent any weather packets the latest 10 day(s).
| Time | Temp. | Humidity | Pressure | Rain* | Wind** | Luminosity | Snow |
|---|---|---|---|---|---|---|---|
| 1777766313 | 10° C | 37% | 1011.5 hPa | 0 mm | - | 33 W/m² | - |
| 1777766010 | 10° C | 36% | 1011.3 hPa | 0 mm | - | 41 W/m² | - |
| 1777765707 | 10° C | 35% | 1011.6 hPa | 0 mm | - | 52 W/m² | - |
| 1777765404 | 10° C | 34% | 1011.5 hPa | 0 mm | - | 48 W/m² | - |
| 1777765100 | 10.56° C | 35% | 1011.6 hPa | 0 mm | - | 49 W/m² | - |
| 1777764797 | 10.56° C | 35% | 1011.3 hPa | 0 mm | - | 55 W/m² | - |
| 1777764494 | 10.56° C | 35% | 1011.7 hPa | 0 mm | - | 59 W/m² | - |
| 1777764190 | 10.56° C | 33% | 1011.5 hPa | 0 mm | - | 65 W/m² | - |
| 1777763886 | 10.56° C | 34% | 1011.5 hPa | 0 mm | - | 76 W/m² | - |
| 1777763584 | 11.11° C | 34% | 1011.4 hPa | 0 mm | - | 67 W/m² | - |
| 1777763283 | 11.11° C | 33% | 1011.5 hPa | 0 mm | - | 59 W/m² | - |
| 1777762981 | 11.67° C | 32% | 1011.5 hPa | 0 mm | - | 56 W/m² | - |
| 1777762676 | 12.78° C | 30% | 1011.2 hPa | 0 mm | - | 63 W/m² | - |
| 1777762374 | 12.78° C | 30% | 1011.3 hPa | 0 mm | - | 107 W/m² | - |
| 1777762070 | 12.78° C | 28% | 1011.3 hPa | 0 mm | - | 131 W/m² | - |
| 1777761767 | 12.78° C | 26% | 1011.4 hPa | 0 mm | - | 186 W/m² | - |
| 1777761464 | 12.78° C | 27% | 1011.3 hPa | 0 mm | - | 186 W/m² | - |
| 1777761162 | 13.33° C | 28% | 1011.4 hPa | 0 mm | - | 160 W/m² | - |
| 1777760860 | 12.78° C | 27% | 1011.3 hPa | 0 mm | - | 192 W/m² | - |
| 1777760556 | 12.78° C | 28% | 1011.5 hPa | 0 mm | - | 155 W/m² | - |
| 1777760251 | 12.78° C | 29% | 1011.5 hPa | 0 mm | - | 117 W/m² | - |
| 1777759948 | 12.78° C | 28% | 1011.4 hPa | 0 mm | - | 131 W/m² | - |
| 1777759639 | 12.78° C | 28% | 1011.3 hPa | 0 mm | - | 161 W/m² | - |
| 1777759335 | 12.78° C | 29% | 1011.4 hPa | 0 mm | - | 153 W/m² | - |
| 1777759033 | 12.78° C | 28% | 1011.5 hPa | 0 mm | - | 170 W/m² | - |
* Rain latest hour (hover to see other rain measurements)
** Current wind speed in m/s (hover to see current wind gust speed)